Вернуться в каталог

CZ-6A DEB

АктивенSSO
NORAD 56660·DEBRIS·🇨🇳 China

Запущен Nov 11, 2022 с Taiyuan Satellite Launch Center

Loading…

Ближайшие Пролёты (ближайшие 24 часа)

TLE

СвежийSource: Space-Track

Эпоха: Sep 13, 2026, 19:05 UTC

1 56660U 22151AGL 26256.79565542  .00001470  00000-0  47725-3 0  9998
2 56660  98.6640 280.1913 0103055 187.2651 172.7048 14.37428297177120

Отслеживайте CZ-6A DEB в реальном времени с AllMySat

Download on the App Store